Weather History for KJYG - February, 2012

Change the Weather History Date:

Thursday, February 9, 2012

  Actual Average Record
Temperature  
Mean Temperature 28 °F -  
Max Temperature 42 °F 26 °F 118 °F (1999)
Min Temperature 14 °F 5 °F -23 °F (1979)
Degree Days  
Heating Degree Days 37    
Moisture  
Dew Point 20 °F    
Average Humidity 72    
Maximum Humidity 86    
Minimum Humidity 49    
Precipitation  
Precipitation 0.00 in - - ()
Sea Level Pressure  
Sea Level Pressure 30.07 in    
Wind  
Wind Speed 8 mph (SSW)    
Max Wind Speed 18 mph    
Max Gust Speed 21 mph    
Visibility 10 miles    
Events      
Averages and records for this station are not official NWS values.
T = Trace of Precipitation, MM = Missing Value Source: NWS Daily Summary

Daily Weather History Graph

Daily Weather History Graph

Search for Another Location

Airport or City:

Trip Planner

Search our weather history database for the weather conditions in past years. The results will help you decide how hot, cold, wet, or windy it might be!

Date:

Astronomy

Feb. 09, 2012 Rise Set
Actual Time 7:26 AM CST 5:39 PM CST
Civil Twilight 6:56 AM CST 6:09 PM CST
Nautical Twilight 6:22 AM CST 6:43 PM CST
Astronomical Twilight 5:48 AM CST 7:16 PM CST
Moon 8:16 PM CST (2/9) 7:56 AM CST (2/9)
Length of Visible Light 11h 12m
Length of Day
10h 12m
Waning Gibbous, 96% of the Moon is Illuminated
Feb 9
Waning Gibbous
Feb 14
Last Quarter
Feb 21
New
Feb 29
First Quarter
Mar 8
Full

Hourly Weather History & Observations

Time (CST) Temp. Windchill Dew Point Humidity Pressure Visibility Wind Dir Wind Speed Gust Speed Precip Events Conditions
12:15 AM 19.4 °F 10.4 °F 12.2 °F 74% 30.27 in 10.0 mi SW 6.9 mph - N/A   Clear
12:35 AM 19.4 °F 10.4 °F 12.2 °F 74% 30.26 in 10.0 mi SW 6.9 mph - N/A   Clear
12:54 AM 19.4 °F 10.4 °F 14.0 °F 80% 30.25 in 10.0 mi SW 6.9 mph - N/A   Clear
1:15 AM 19.4 °F 10.4 °F 12.2 °F 74% 30.25 in 10.0 mi SW 6.9 mph - N/A   Clear
1:34 AM 19.4 °F 14.3 °F 12.2 °F 74% 30.25 in 10.0 mi SSW 3.5 mph - N/A   Clear
1:55 AM 17.6 °F 12.3 °F 12.2 °F 79% 30.25 in 10.0 mi SSW 3.5 mph - N/A   Clear
2:15 AM 17.6 °F 12.3 °F 12.2 °F 79% 30.24 in 10.0 mi SSW 3.5 mph - N/A   Clear
2:35 AM 17.6 °F 10.7 °F 12.2 °F 79% 30.24 in 10.0 mi South 4.6 mph - N/A   Clear
2:54 AM 15.8 °F 6.1 °F 12.2 °F 86% 30.23 in 10.0 mi South 6.9 mph - N/A   Clear
3:15 AM 15.8 °F 6.1 °F 12.2 °F 86% 30.22 in 10.0 mi South 6.9 mph - N/A   Clear
3:35 AM 15.8 °F 6.1 °F 12.2 °F 86% 30.21 in 10.0 mi South 6.9 mph - N/A   Clear
3:55 AM 15.8 °F 10.2 °F 10.4 °F 79% 30.21 in 10.0 mi SSW 3.5 mph - N/A   Clear
4:15 AM 15.8 °F 8.6 °F 10.4 °F 79% 30.20 in 10.0 mi South 4.6 mph - N/A   Clear
4:35 AM 15.8 °F 6.1 °F 12.2 °F 86% 30.19 in 10.0 mi SSW 6.9 mph - N/A   Clear
4:55 AM 15.8 °F 10.2 °F 12.2 °F 86% 30.18 in 10.0 mi SSW 3.5 mph - N/A   Clear
5:15 AM 15.8 °F 7.2 °F 10.4 °F 79% 30.18 in 10.0 mi South 5.8 mph - N/A   Clear
5:34 AM 15.8 °F 8.6 °F 10.4 °F 79% 30.17 in 10.0 mi South 4.6 mph - N/A   Clear
6:15 AM 14.0 °F 5.1 °F 10.4 °F 86% 30.17 in 10.0 mi South 5.8 mph - N/A   Clear
6:35 AM 14.0 °F 5.1 °F 10.4 °F 86% 30.16 in 10.0 mi South 5.8 mph - N/A   Clear
6:55 AM 14.0 °F 5.1 °F 10.4 °F 86% 30.16 in 10.0 mi South 5.8 mph - N/A   Clear
7:15 AM 15.8 °F 6.1 °F 10.4 °F 79% 30.16 in 10.0 mi South 6.9 mph - N/A   Clear
7:34 AM 15.8 °F 4.2 °F 12.2 °F 86% 30.15 in 10.0 mi South 9.2 mph - N/A   Clear
7:55 AM 15.8 °F 4.2 °F 12.2 °F 86% 30.13 in 10.0 mi South 9.2 mph - N/A   Clear
8:15 AM 17.6 °F 7.3 °F 12.2 °F 79% 30.14 in 10.0 mi South 8.1 mph - N/A   Clear
8:34 AM 17.6 °F 9.3 °F 14.0 °F 86% 30.14 in 10.0 mi South 5.8 mph - N/A   Clear
8:55 AM 19.4 °F 8.6 °F 15.8 °F 86% 30.13 in 10.0 mi South 9.2 mph - N/A   Clear
9:15 AM 21.2 °F 10.9 °F 17.6 °F 86% 30.13 in 10.0 mi South 9.2 mph - N/A   Clear
9:35 AM 24.8 °F 15.3 °F 19.4 °F 80% 30.12 in 10.0 mi South 9.2 mph - N/A   Clear
9:55 AM 26.6 °F 18.2 °F 19.4 °F 74% 30.11 in 10.0 mi South 8.1 mph - N/A   Clear
10:15 AM 28.4 °F 19.1 °F 21.2 °F 74% 30.10 in 10.0 mi SSW 10.4 mph - N/A   Clear
10:35 AM 28.4 °F 19.1 °F 21.2 °F 74% 30.09 in 10.0 mi South 10.4 mph - N/A   Clear
10:55 AM 30.2 °F 22.6 °F 23.0 °F 75% 30.08 in 10.0 mi SSW 8.1 mph - N/A   Clear
11:15 AM 33.8 °F 25.3 °F 24.8 °F 70% 30.08 in 10.0 mi SSW 11.5 mph - N/A   Clear
11:35 AM 33.8 °F 25.3 °F 24.8 °F 70% 30.06 in 10.0 mi SSW 11.5 mph - N/A   Clear
11:55 AM 35.6 °F 28.6 °F 24.8 °F 65% 30.05 in 10.0 mi SSW 9.2 mph - N/A   Clear
12:13 PM 37.4 °F 29.3 °F 24.8 °F 60% 30.03 in 10.0 mi SSW 12.7 mph - N/A   Clear
12:35 PM 37.4 °F 27.8 °F 24.8 °F 60% 30.01 in 10.0 mi SW 17.3 mph 20.7 mph N/A   Clear
12:55 PM 37.4 °F 28.9 °F 24.8 °F 60% 30.00 in 10.0 mi SSW 13.8 mph - N/A   Clear
1:15 PM 39.2 °F 31.2 °F 24.8 °F 56% 29.98 in 10.0 mi SSW 13.8 mph - N/A   Clear
1:35 PM 41.0 °F 33.5 °F 24.8 °F 53% 29.97 in 10.0 mi SSW 13.8 mph 17.3 mph N/A   Clear
1:54 PM 41.0 °F 33.9 °F 24.8 °F 53% 29.96 in 10.0 mi SSW 12.7 mph 19.6 mph N/A   Clear
2:15 PM 42.8 °F 36.2 °F 26.6 °F 53% 29.95 in 10.0 mi SSW 12.7 mph - N/A   Clear
2:35 PM 42.8 °F 35.8 °F 24.8 °F 49% 29.94 in 10.0 mi SSW 13.8 mph 18.4 mph N/A   Clear
2:55 PM 42.8 °F 35.4 °F 24.8 °F 49% 29.95 in 10.0 mi SSW 15.0 mph - N/A   Clear
3:15 PM 42.8 °F 34.8 °F 24.8 °F 49% 29.95 in 10.0 mi SW 17.3 mph - N/A   Clear
3:35 PM 42.8 °F 36.2 °F 26.6 °F 53% 29.94 in 10.0 mi SSW 12.7 mph 19.6 mph N/A   Clear
3:55 PM 41.0 °F 33.1 °F 24.8 °F 53% 29.94 in 10.0 mi SSW 15.0 mph - N/A   Clear
4:15 PM 41.0 °F 32.2 °F 26.6 °F 57% 29.94 in 10.0 mi SSW 18.4 mph - N/A   Clear
4:35 PM 41.0 °F 33.9 °F 26.6 °F 57% 29.93 in 10.0 mi SSW 12.7 mph 18.4 mph N/A   Clear
4:55 PM 39.2 °F 31.2 °F 26.6 °F 61% 29.93 in 10.0 mi SSW 13.8 mph 17.3 mph N/A   Clear
5:15 PM 39.2 °F 32.0 °F 28.4 °F 65% 29.93 in 10.0 mi SSW 11.5 mph 18.4 mph N/A   Clear
5:35 PM 37.4 °F 30.3 °F 28.4 °F 70% 29.93 in 10.0 mi SSW 10.4 mph - N/A   Clear
5:55 PM 35.6 °F 28.0 °F 28.4 °F 75% 29.94 in 7.0 mi SSW 10.4 mph - N/A   Clear
6:15 PM 35.6 °F 29.2 °F 26.6 °F 70% 29.95 in 10.0 mi SSW 8.1 mph - N/A   Clear
6:35 PM 33.8 °F 26.4 °F 26.6 °F 75% 29.95 in 10.0 mi SSW 9.2 mph - N/A   Clear
6:55 PM 33.8 °F 25.8 °F 26.6 °F 75% 29.94 in 10.0 mi SSW 10.4 mph - N/A   Scattered Clouds
7:15 PM 33.8 °F 27.0 °F 26.6 °F 75% 29.94 in 10.0 mi SSW 8.1 mph - N/A   Scattered Clouds
7:35 PM 33.8 °F 27.7 °F 26.6 °F 75% 29.94 in 10.0 mi SSW 6.9 mph - N/A   Clear
7:55 PM 32.0 °F 25.6 °F 26.6 °F 80% 29.93 in 10.0 mi South 6.9 mph - N/A   Scattered Clouds
8:15 PM 32.0 °F 26.4 °F 26.6 °F 80% 29.93 in 10.0 mi SSW 5.8 mph - N/A   Scattered Clouds
8:35 PM 33.8 °F 24.8 °F 28.4 °F 81% 29.93 in 10.0 mi SSW 12.7 mph 19.6 mph N/A   Mostly Cloudy
8:55 PM 33.8 °F 23.9 °F 28.4 °F 81% 29.94 in 10.0 mi WSW 15.0 mph - N/A   Mostly Cloudy
9:15 PM 33.8 °F 22.5 °F 26.6 °F 75% 29.96 in 10.0 mi WNW 19.6 mph 25.3 mph N/A   Overcast
9:35 PM 33.8 °F 22.2 °F 24.8 °F 70% 29.97 in 10.0 mi WNW 20.7 mph 26.5 mph N/A   Mostly Cloudy
9:55 PM 32.0 °F 19.5 °F 23.0 °F 69% 29.98 in 10.0 mi WNW 21.9 mph 26.5 mph N/A   Scattered Clouds
10:15 PM 28.4 °F 13.8 °F 21.2 °F 74% 30.00 in 10.0 mi WNW 25.3 mph 32.2 mph N/A   Mostly Cloudy
10:35 PM 26.6 °F 12.0 °F 19.4 °F 74% 30.01 in 10.0 mi WNW 23.0 mph 32.2 mph N/A   Scattered Clouds
10:55 PM 24.8 °F 9.3 °F 17.6 °F 74% 30.02 in 10.0 mi WNW 24.2 mph 32.2 mph N/A   Mostly Cloudy
11:15 PM 24.8 °F 9.6 °F 15.8 °F 69% 30.04 in 10.0 mi WNW 23.0 mph 29.9 mph N/A   Overcast
11:35 PM 23.0 °F 8.3 °F 12.2 °F 63% 30.05 in 10.0 mi WNW 19.6 mph 34.5 mph N/A   Overcast
11:55 PM 19.4 °F 2.1 °F 8.6 °F 63% 30.06 in 10.0 mi NW 24.2 mph 34.5 mph N/A   Overcast